COSMOS 1261 DEB, 27902

Orbit data source: Space-Track

COSMOS 1261 DEB, 27902 is space debris originally from a launch on Tue, 31 Mar 1981 UTC launched from the Plesetsk Missile And Space Complex (PKMTR). Debris objects in space refer to the collection of defunct objects orbiting the Earth. Examples of debris include non-operational satellites, rocket bodies, and fragments generated from explosions, collisions, or faulty payload assembly.

Loading next visibility...
COSMOS 1261 DEB details
Identifier
27902, 1981-031K
Orbit
Molniya
Last TLE update16 hours ago
Origin
Flag of CISPVO (CIS)
ManufacturerUnknown
MissionSpacecraft
Bus & MotorUnknown
MassUnknown
Launch date (UTC)
1981-03-31 (44 years ago)
Launch vehicleUnknown
Launch site
Plesetsk Missile And Space Complex (PKMTR)
Object type
Payload
Rocket body
Debris
Shape & HBRUnknown
Radar Cross SectionMedium (>0.1 m² and <1 m²)

Expand to show TLE details & history

TLE from 16 hours ago
0 COSMOS 1261 DEB
1 27902U 81031K   25035.61001966  .00019635  00000-0  37623-2 0  9994
2 27902  62.2202  95.1463 7495288  47.5393 355.1329  2.03014585165051
Epoch: 2025-02-04T14:38Z
Definitive object data (Epoch: 2025-02-04T14:38:25.698Z)
Latitude-0.00011°
Longitude100.58349°
Altitude1,262.199 km
Speed9.446 km/s
True Right ascension06h 20m 48s
True Declination0° 00' 00"
Sunlit
Object was in full shadow at TLE epoch
Visualization TLE readout
Latitude-31.26572°
Longitude-60.92663°
Altitude37,025.255 km
Speed1.8 km/s
Apparent Right ascension19h 43m 37s
Apparent Declination-32° 28' 25"
Sunlit
Object is in daylight
Visualization observer readout
Local Sidereal Time08:51:35
Azimuth66.756° ENE
Elevation-74.435°
Doppler factor1
Orbital elements
Apogee altitude39,713.468 km
Perigee altitude220.565 km
Semi-major axis26,345.154 km
Eccentricity0.7495288
Inclination62.2202°
RAAN95.1463°
Arg. of periapsis47.5393°
True anomaly313.47345°
Mean anomaly355.1329°
Eccentric anomaly341.5218°
Mean motion0.50757 °/min
BSTAR0.0037623
Orbital period709.27 mins
Loading maneuver chart data...
Loading historical data...
Loading historical data...
Loading historical data...
Loading historical data...
Loading historical data...
Loading historical data...
Loading historical data...

COSMOS 1261 DEB Visibility forecast

Observer location: undefined°, undefined

Span
Click to sort rows by Start time (UTC) header in descending order
Start Az.
Max El. time (UTC)
Max El. Az.
Max El.
End time (UTC)
End Az.
228 mins2025-02-05 14:39:21.151Z321.856° NNW2025-02-05 14:51:21.151Z229.198° WSW44.797°2025-02-05 18:27:21.151Z193.803° SSW
|